Flag for Liberia Weather past 2 weeks in Gbarnga, Liberia

Now
73 °F

Passing clouds.


Feels Like: 70 °F
Forecast: 64 / 96 °F
Wind: 3 mph from Northeast

Location: Roberts Field

Current Time: Mar 1, 2015 at 5:00:18 AM

Latest Report: Mar 1, 2015 at 4:30 AM


Visibility: 5 mi

Pressure: 29.86 "Hg

Humidity: 94%

Dew point: 72 °F

Location of GbarngaLocation

Historic Weather in Gbarnga — Graph

°F

Gbarnga temperature yesterday

Maximum temperature yesterday: 90 °F (at 12:00 PM)
Minimum temperature yesterday: 73 °F (at 5:00 AM)
Average temperature yesterday: 78 °F

Past Weeks' High & Low Weather Summary

 TemperatureHumidityPressure
High91 °F (Feb 17, 1:30 PM)100% (Feb 19, 4:00 AM)29.98 "Hg (Feb 19, 4:00 AM)
Low72 °F (Feb 14, 8:00 AM)55% (Feb 18, 2:00 PM)29.74 "Hg (Feb 18, 3:30 PM)
Average80 °F83%29.85 "Hg
* Reported Feb 14 8:00 AM — Mar 1 4:00 AM, Gbarnga, Weather by CustomWeather, © 2015

Note: Actual official high and low records may vary slightly from our data, if they occured in-between our weather recording intervals... More about our weather records

Advertising

Gbarnga weather history for previous 24 hours

 ConditionsComfort  
Time TempWeatherWind HumidityBarometerVisibility
4:00 AM
Sun, Mar 1
73 °FPassing clouds.No wind94%29.86 "Hg5 mi
3:30 AM73 °FPassing clouds.No wind94%29.86 "Hg5 mi
3:00 AM75 °FPassing clouds.No wind94%29.86 "HgN/A
1:30 AM75 °FPassing clouds.No wind94%29.92 "HgN/A
12:00 AM75 °FPassing clouds.No wind94%29.92 "HgN/A
11:30 PM
Sat, Feb 28
75 °FPassing clouds.No wind94%29.92 "HgN/A
11:00 PM75 °FPassing clouds.No wind94%29.92 "HgN/A
10:30 PM75 °FPassing clouds.No wind94%29.95 "HgN/A
10:00 PM75 °FPassing clouds.No wind94%29.95 "HgN/A
9:30 PM75 °FPassing clouds.No wind94%29.92 "HgN/A
9:00 PM75 °FPassing clouds.No wind94%29.92 "HgN/A
8:30 PM75 °FPassing clouds.No wind94%29.89 "HgN/A
8:00 PM75 °FPassing clouds.No wind94%29.89 "HgN/A
7:30 PM75 °FPassing clouds.No wind94%29.89 "HgN/A
7:00 PM77 °FPassing clouds.No wind94%29.86 "HgN/A
6:30 PM77 °FPassing clouds.No wind94%29.83 "HgN/A
6:00 PM77 °FPassing clouds.No wind94%29.83 "HgN/A
5:30 PM75 °FThunderstorms. Scattered clouds.No wind94%29.83 "HgN/A
5:00 PM75 °FThunderstorms. Scattered clouds.No wind94%29.83 "HgN/A
4:30 PM75 °FThunderstorms. Partly sunny.3 mph94%29.83 "HgN/A
4:00 PM75 °FPartly sunny.No wind94%29.83 "HgN/A
3:00 PM81 °FPartly sunny.21 mph84%29.86 "Hg6 mi
2:30 PM88 °FPartly sunny.16 mph70%29.80 "HgN/A
2:00 PM88 °FPartly sunny.8 mph66%29.80 "HgN/A
1:30 PM88 °FPartly sunny.12 mph66%29.83 "HgN/A
1:00 PM88 °FPartly sunny.9 mph66%29.86 "HgN/A
12:30 PM88 °FPartly sunny.7 mph62%29.86 "HgN/A
12:00 PM90 °FPartly sunny.3 mph59%29.89 "HgN/A
11:30 AM88 °FPartly sunny.6 mph66%29.89 "HgN/A
11:00 AM86 °FScattered clouds.6 mph70%29.89 "HgN/A
10:30 AM84 °FScattered clouds.8 mph70%29.92 "HgN/A
10:00 AM82 °FScattered clouds.7 mph79%29.92 "HgN/A
9:30 AM81 °FPassing clouds.5 mph79%29.92 "HgN/A
9:00 AM77 °FPassing clouds.3 mph89%29.92 "HgN/A
8:30 AM75 °FScattered clouds.No wind94%29.92 "Hg6 mi
8:00 AM73 °FPartly sunny.No wind100%29.92 "Hg6 mi
7:30 AM73 °FPassing clouds.No wind94%29.89 "Hg6 mi
7:00 AM73 °FPassing clouds.No wind94%29.89 "Hg5 mi
6:30 AM73 °FPassing clouds.No wind94%29.86 "Hg5 mi
6:00 AM73 °FPassing clouds.No wind94%29.86 "Hg5 mi
5:30 AM73 °FPassing clouds.No wind94%29.83 "Hg5 mi
5:00 AM73 °FPassing clouds.No wind94%29.83 "HgN/A
Weather by CustomWeather, © 2015

See weather overviewHow to use our weather pages